SWA3100 KMCO-KBWI

Flight info

Callsign SWA3100
Flight time N/A
Altitude 37000
Route FATHE4 VIYAP Q87 RAYVO Q113 AARNN THHMP RAVNN8
Aircraft B738/M-SDE2E3FGHIRWXY/LB1

Departure

Time 2026-04-25 04:02
Airport Orlando International Airport (KMCO)

Arrival

Time N/A
Airport Baltimore/Washington International Thurgood Marshall Airport (KBWI)
Time Latitude Longitude Altitude Speed Heading
2026-04-25 03:29 28.43390 -81.29986 90 ft 0 kts 305°
2026-04-25 03:54 28.43382 -81.29972 90 ft 2 kts 305°
2026-04-25 03:54 28.43372 -81.29959 90 ft 2 kts 323°
2026-04-25 03:55 28.43360 -81.29951 90 ft 2 kts 337°
2026-04-25 03:55 28.43345 -81.29945 90 ft 2 kts 353°
2026-04-25 03:55 28.43330 -81.29945 90 ft 2 kts
2026-04-25 03:55 28.43316 -81.29950 90 ft 2 kts 24°
2026-04-25 03:56 28.43303 -81.29958 90 ft 2 kts 40°
2026-04-25 03:56 28.43293 -81.29971 90 ft 1 kts 56°
2026-04-25 03:56 28.43289 -81.29977 90 ft 1 kts 60°
2026-04-25 03:56 28.43289 -81.29978 90 ft 0 kts 59°
2026-04-25 04:00 28.43290 -81.29974 90 ft 0 kts 60°
2026-04-25 04:00 28.43293 -81.29968 90 ft 1 kts 62°
2026-04-25 04:00 28.43297 -81.29961 90 ft 1 kts 63°
2026-04-25 04:00 28.43302 -81.29950 90 ft 1 kts 63°
2026-04-25 04:01 28.43306 -81.29937 90 ft 2 kts 66°
2026-04-25 04:01 28.43313 -81.29922 90 ft 2 kts 65°
2026-04-25 04:01 28.43327 -81.29887 90 ft 15 kts 65°
2026-04-25 04:01 28.43379 -81.29722 90 ft 22 kts 36°
2026-04-25 04:02 28.43438 -81.29603 90 ft 20 kts 137°
2026-04-25 04:02 28.43149 -81.29578 90 ft 84 kts 177°
2026-04-25 04:02 28.42260 -81.29569 97 ft 166 kts 179°
2026-04-25 04:02 28.40993 -81.29631 750 ft 195 kts 182°
2026-04-25 04:03 28.39634 -81.29623 1873 ft 202 kts 171°
2026-04-25 04:03 28.38312 -81.29171 2911 ft 204 kts 154°
2026-04-25 04:03 28.37063 -81.28320 3511 ft 219 kts 143°
2026-04-25 04:03 28.36117 -81.26905 4001 ft 240 kts 108°
2026-04-25 04:04 28.36102 -81.24995 4694 ft 252 kts 71°
2026-04-25 04:04 28.37106 -81.23359 5355 ft 265 kts 37°
2026-04-25 04:04 28.38828 -81.22628 6191 ft 271 kts
2026-04-25 04:04 28.40628 -81.23095 7174 ft 272 kts 334°
2026-04-25 04:05 28.42284 -81.24135 8170 ft 273 kts 332°
2026-04-25 04:05 28.44007 -81.25053 9030 ft 279 kts 340°
2026-04-25 04:05 28.45877 -81.25596 9964 ft 281 kts 350°
2026-04-25 04:05 28.47816 -81.25853 10825 ft 285 kts 354°
2026-04-25 04:06 28.49789 -81.25998 11722 ft 287 kts 355°
2026-04-25 04:06 28.51808 -81.26128 12543 ft 291 kts 355°
2026-04-25 04:06 28.53823 -81.26270 13384 ft 293 kts 354°
2026-04-25 04:06 28.55869 -81.26424 14091 ft 300 kts 354°
2026-04-25 04:07 28.57982 -81.26593 14597 ft 313 kts 354°
2026-04-25 04:07 28.60196 -81.26778 15126 ft 325 kts 354°
2026-04-25 04:07 28.62480 -81.26971 15909 ft 329 kts 354°
2026-04-25 04:07 28.64771 -81.27163 16682 ft 331 kts 354°
2026-04-25 04:08 28.67041 -81.27352 17445 ft 333 kts 354°
2026-04-25 04:08 28.69363 -81.27547 18158 ft 337 kts 354°
2026-04-25 04:08 28.71746 -81.27750 18790 ft 342 kts 354°
2026-04-25 04:08 28.74116 -81.27954 19452 ft 346 kts 354°
2026-04-25 04:09 28.76534 -81.28159 20087 ft 350 kts 354°
2026-04-25 04:09 28.78987 -81.28367 20664 ft 355 kts 354°
2026-04-25 04:09 28.81449 -81.28574 21272 ft 358 kts 354°
2026-04-25 04:09 28.83937 -81.28783 21824 ft 363 kts 354°
2026-04-25 04:10 28.86483 -81.28999 22384 ft 367 kts 353°
2026-04-25 04:10 28.89037 -81.29215 22973 ft 370 kts 353°
2026-04-25 04:10 28.91612 -81.29434 23513 ft 373 kts 353°
2026-04-25 04:10 28.94216 -81.29655 24067 ft 376 kts 353°
2026-04-25 04:11 28.99460 -81.30102 25116 ft 383 kts 353°
2026-04-25 04:11 29.02120 -81.30361 25618 ft 386 kts 352°
2026-04-25 04:11 29.04831 -81.30659 26126 ft 388 kts 352°
2026-04-25 04:12 29.07497 -81.30965 26609 ft 391 kts 352°
2026-04-25 04:12 29.10205 -81.31278 27121 ft 393 kts 352°
2026-04-25 04:12 29.12938 -81.31552 27581 ft 396 kts 353°
2026-04-25 04:12 29.15711 -81.31750 28035 ft 399 kts 354°
2026-04-25 04:13 29.18496 -81.31908 28462 ft 402 kts 355°
2026-04-25 04:13 29.21298 -81.32055 28899 ft 405 kts 355°
2026-04-25 04:13 29.24111 -81.32201 29310 ft 407 kts 355°
2026-04-25 04:13 29.26975 -81.32356 29722 ft 410 kts 355°
2026-04-25 04:14 29.29821 -81.32516 30117 ft 413 kts 355°
2026-04-25 04:14 29.32721 -81.32682 30506 ft 415 kts 355°
2026-04-25 04:14 29.35596 -81.32849 30914 ft 417 kts 354°
2026-04-25 04:14 29.38510 -81.33021 31248 ft 420 kts 354°
2026-04-25 04:15 29.41400 -81.33194 31634 ft 421 kts 354°
2026-04-25 04:15 29.44366 -81.33373 32009 ft 423 kts 354°
2026-04-25 04:15 29.47290 -81.33548 32396 ft 424 kts 354°
2026-04-25 04:15 29.50286 -81.33728 32745 ft 426 kts 354°
2026-04-25 04:16 29.53260 -81.33910 33074 ft 429 kts 354°
2026-04-25 04:16 29.56290 -81.34094 33395 ft 431 kts 354°
2026-04-25 04:16 29.59305 -81.34277 33726 ft 433 kts 354°
2026-04-25 04:16 29.62308 -81.34460 34055 ft 435 kts 354°
2026-04-25 04:17 29.65341 -81.34641 34327 ft 438 kts 354°
2026-04-25 04:17 29.68423 -81.34820 34690 ft 439 kts 354°
2026-04-25 04:17 29.71436 -81.34988 35243 ft 435 kts 354°
2026-04-25 04:17 29.74470 -81.35157 35684 ft 434 kts 354°
2026-04-25 04:18 29.77464 -81.35324 36088 ft 433 kts 354°
2026-04-25 04:18 29.80495 -81.35493 36506 ft 431 kts 354°
2026-04-25 04:18 29.83471 -81.35664 36856 ft 431 kts 354°
2026-04-25 04:18 29.86481 -81.35836 37231 ft 430 kts 354°
2026-04-25 04:19 29.89452 -81.36008 37580 ft 430 kts 354°
2026-04-25 04:19 29.92457 -81.36182 37899 ft 430 kts 354°
2026-04-25 04:19 29.95457 -81.36354 38233 ft 429 kts 354°
2026-04-25 04:19 29.98403 -81.36522 38586 ft 428 kts 354°
2026-04-25 04:20 30.01374 -81.36691 38836 ft 428 kts 354°
2026-04-25 04:20 30.04355 -81.36861 39113 ft 428 kts 354°
2026-04-25 04:20 30.07326 -81.37033 39340 ft 428 kts 354°
2026-04-25 04:20 30.10321 -81.37207 39616 ft 428 kts 354°
2026-04-25 04:21 30.13280 -81.37380 39864 ft 428 kts 354°
2026-04-25 04:21 30.16274 -81.37554 40132 ft 428 kts 354°
2026-04-25 04:21 30.19257 -81.37725 40376 ft 428 kts 354°
2026-04-25 04:21 30.22215 -81.37894 40615 ft 427 kts 354°
2026-04-25 04:22 30.25200 -81.38065 40857 ft 427 kts 354°
2026-04-25 04:22 30.31135 -81.38411 40959 ft 428 kts 354°
2026-04-25 04:23 30.37065 -81.38759 40961 ft 425 kts 354°
2026-04-25 04:23 30.42974 -81.39101 40958 ft 424 kts 354°
2026-04-25 04:24 30.48886 -81.39438 40961 ft 425 kts 355°
2026-04-25 04:24 30.54773 -81.39751 40960 ft 425 kts 355°
2026-04-25 04:25 30.60708 -81.40065 40957 ft 425 kts 355°
2026-04-25 04:25 30.66627 -81.40376 40957 ft 425 kts 355°
2026-04-25 04:26 30.72524 -81.40680 40954 ft 424 kts 355°
2026-04-25 04:26 30.78438 -81.40994 40952 ft 425 kts 355°
2026-04-25 04:27 30.84340 -81.41312 40948 ft 425 kts 355°
2026-04-25 04:27 30.90240 -81.41625 40950 ft 426 kts 355°
2026-04-25 04:28 30.96184 -81.41685 40944 ft 428 kts
2026-04-25 04:28 31.01995 -81.40247 40950 ft 431 kts 12°
2026-04-25 04:29 31.07793 -81.38334 40947 ft 431 kts 13°
2026-04-25 04:29 31.13530 -81.36461 40940 ft 430 kts 13°
2026-04-25 04:30 31.19333 -81.34660 40941 ft 430 kts 12°
2026-04-25 04:30 31.25120 -81.32925 40935 ft 430 kts 12°
2026-04-25 04:31 31.30911 -81.31204 40939 ft 430 kts 12°
2026-04-25 04:31 31.36712 -81.29485 40935 ft 430 kts 12°
2026-04-25 04:32 31.42530 -81.27766 40928 ft 430 kts 12°
2026-04-25 04:32 31.48325 -81.26044 40928 ft 430 kts 12°
2026-04-25 04:33 31.54120 -81.24332 40926 ft 430 kts 12°
2026-04-25 04:33 31.59905 -81.22621 40928 ft 431 kts 12°
2026-04-25 04:34 31.65725 -81.20879 40924 ft 431 kts 13°
2026-04-25 04:34 31.71389 -81.18553 40923 ft 433 kts 20°
2026-04-25 04:35 31.76861 -81.15622 40928 ft 433 kts 23°
2026-04-25 04:35 31.82305 -81.12560 40924 ft 433 kts 23°
2026-04-25 04:36 31.87743 -81.09515 40923 ft 433 kts 22°
2026-04-25 04:36 31.93206 -81.06484 40931 ft 435 kts 22°
2026-04-25 04:37 31.98708 -81.03444 40933 ft 435 kts 22°
2026-04-25 04:37 32.04149 -81.00427 40936 ft 433 kts 22°
2026-04-25 04:38 32.09588 -80.97377 40939 ft 434 kts 23°
2026-04-25 04:38 32.15045 -80.94312 40935 ft 433 kts 23°
2026-04-25 04:39 32.20487 -80.91259 40940 ft 434 kts 23°
2026-04-25 04:39 32.25980 -80.88175 40932 ft 435 kts 23°
2026-04-25 04:40 32.31419 -80.85115 40934 ft 434 kts 23°
2026-04-25 04:40 32.36875 -80.82046 40936 ft 434 kts 23°
2026-04-25 04:41 32.42321 -80.78970 40932 ft 433 kts 23°
2026-04-25 04:41 32.47763 -80.75897 40934 ft 434 kts 23°
2026-04-25 04:42 32.53231 -80.72809 40932 ft 435 kts 23°
2026-04-25 04:42 32.58680 -80.69740 40931 ft 436 kts 22°
2026-04-25 04:43 32.64157 -80.66671 40921 ft 435 kts 22°
2026-04-25 04:43 32.69629 -80.63584 40917 ft 434 kts 23°
2026-04-25 04:44 32.75073 -80.60456 40915 ft 435 kts 24°
2026-04-25 04:44 32.80476 -80.57243 40920 ft 435 kts 24°
2026-04-25 04:45 32.85883 -80.54008 40923 ft 436 kts 24°
2026-04-25 04:45 32.91315 -80.50762 40921 ft 436 kts 24°
2026-04-25 04:46 32.96739 -80.47523 40922 ft 436 kts 24°
2026-04-25 04:46 33.02179 -80.44273 40927 ft 436 kts 24°
2026-04-25 04:47 33.07606 -80.41032 40923 ft 436 kts 24°
2026-04-25 04:47 33.13033 -80.37783 40918 ft 436 kts 24°
2026-04-25 04:48 33.18440 -80.34542 40916 ft 436 kts 25°
2026-04-25 04:48 33.23861 -80.31290 40913 ft 436 kts 25°
2026-04-25 04:49 33.29269 -80.28039 40913 ft 435 kts 25°
2026-04-25 04:49 33.34682 -80.24782 40911 ft 435 kts 25°
2026-04-25 04:50 33.40084 -80.21527 40909 ft 435 kts 25°
2026-04-25 04:50 33.45496 -80.18260 40917 ft 435 kts 25°
2026-04-25 04:51 33.50896 -80.14997 40922 ft 436 kts 25°
2026-04-25 04:51 33.56302 -80.11727 40920 ft 434 kts 25°
2026-04-25 04:52 33.61677 -80.08429 40920 ft 435 kts 27°
2026-04-25 04:52 33.66749 -80.04428 40917 ft 437 kts 36°
2026-04-25 04:53 33.71384 -79.99788 40907 ft 437 kts 39°
2026-04-25 04:53 33.75945 -79.94946 40908 ft 438 kts 40°
2026-04-25 04:54 33.80506 -79.90086 40906 ft 438 kts 40°
2026-04-25 04:54 33.85078 -79.85239 40906 ft 437 kts 40°
2026-04-25 04:55 33.89638 -79.80418 40896 ft 437 kts 40°
2026-04-25 04:55 33.94207 -79.75593 40887 ft 436 kts 40°
2026-04-25 04:56 33.98753 -79.70787 40893 ft 436 kts 40°
2026-04-25 04:56 34.03305 -79.65971 40892 ft 437 kts 40°
2026-04-25 04:57 34.07872 -79.61133 40897 ft 437 kts 40°
2026-04-25 04:57 34.12435 -79.56292 40901 ft 436 kts 40°
2026-04-25 04:58 34.16983 -79.51458 40906 ft 437 kts 40°
2026-04-25 04:58 34.21548 -79.46600 40907 ft 437 kts 40°
2026-04-25 04:59 34.26073 -79.41777 40906 ft 436 kts 40°
2026-04-25 04:59 34.30613 -79.36931 40900 ft 437 kts 40°
2026-04-25 05:00 34.35164 -79.32065 40899 ft 436 kts 41°
2026-04-25 05:00 34.39706 -79.27219 40895 ft 436 kts 40°
2026-04-25 05:01 34.44550 -79.22761 40891 ft 434 kts 31°
2026-04-25 05:01 34.49832 -79.19270 40891 ft 435 kts 26°
2026-04-25 05:02 34.55258 -79.16061 40892 ft 434 kts 25°
2026-04-25 05:02 34.60679 -79.12856 40891 ft 433 kts 26°
2026-04-25 05:03 34.66074 -79.09605 40891 ft 432 kts 26°
2026-04-25 05:03 34.71442 -79.06333 40890 ft 432 kts 26°
2026-04-25 05:04 34.76797 -79.03050 40883 ft 431 kts 26°
2026-04-25 05:04 34.82142 -78.99762 40883 ft 431 kts 26°
2026-04-25 05:05 34.87529 -78.96442 40882 ft 433 kts 26°
2026-04-25 05:05 34.92887 -78.93136 40882 ft 432 kts 26°
2026-04-25 05:06 34.98248 -78.89822 40882 ft 431 kts 26°
2026-04-25 05:06 35.03577 -78.86523 40880 ft 431 kts 26°
2026-04-25 05:07 35.08929 -78.83206 40883 ft 431 kts 26°
2026-04-25 05:07 35.14287 -78.79880 40881 ft 432 kts 26°
2026-04-25 05:08 35.19609 -78.76570 40882 ft 432 kts 26°
2026-04-25 05:08 35.24978 -78.73227 40886 ft 431 kts 26°
2026-04-25 05:09 35.30311 -78.69902 40888 ft 430 kts 26°
2026-04-25 05:09 35.35648 -78.66569 40890 ft 431 kts 25°
2026-04-25 05:10 35.40996 -78.63223 40883 ft 432 kts 25°
2026-04-25 05:10 35.46314 -78.59892 40882 ft 432 kts 25°
2026-04-25 05:11 35.51707 -78.56509 40878 ft 432 kts 25°
2026-04-25 05:11 35.57035 -78.53162 40877 ft 431 kts 25°
2026-04-25 05:12 35.65047 -78.48119 40875 ft 432 kts 25°
2026-04-25 05:12 35.70374 -78.44760 40870 ft 432 kts 25°
2026-04-25 05:13 35.75752 -78.41364 40867 ft 433 kts 25°
2026-04-25 05:13 35.81089 -78.37994 40866 ft 433 kts 25°
2026-04-25 05:14 35.86466 -78.34594 40870 ft 433 kts 25°
2026-04-25 05:15 35.94495 -78.29506 40874 ft 434 kts 25°
2026-04-25 05:15 35.99863 -78.26098 40867 ft 435 kts 25°
2026-04-25 05:16 36.05225 -78.22689 40868 ft 433 kts 25°
2026-04-25 05:16 36.10589 -78.19273 40859 ft 434 kts 25°
2026-04-25 05:17 36.15956 -78.15848 40855 ft 433 kts 25°
2026-04-25 05:17 36.21281 -78.12447 40854 ft 433 kts 24°
2026-04-25 05:18 36.26630 -78.09023 40851 ft 433 kts 25°
2026-04-25 05:18 36.31998 -78.05582 40851 ft 433 kts 25°
2026-04-25 05:19 36.37331 -78.02160 40849 ft 433 kts 24°
2026-04-25 05:19 36.42701 -77.98772 40847 ft 433 kts 23°
2026-04-25 05:20 36.48111 -77.95438 40848 ft 434 kts 23°
2026-04-25 05:20 36.53480 -77.92130 40857 ft 433 kts 23°
2026-04-25 05:21 36.58854 -77.88805 40859 ft 431 kts 23°
2026-04-25 05:21 36.64209 -77.85480 40863 ft 432 kts 23°
2026-04-25 05:22 36.69600 -77.82124 40864 ft 432 kts 23°
2026-04-25 05:22 36.74954 -77.78784 40863 ft 432 kts 23°
2026-04-25 05:23 36.80325 -77.75427 40855 ft 431 kts 23°
2026-04-25 05:23 36.85685 -77.72073 40859 ft 433 kts 23°
2026-04-25 05:24 36.91057 -77.68704 40844 ft 431 kts 22°
2026-04-25 05:24 36.96408 -77.65342 40795 ft 431 kts 22°
2026-04-25 05:24 36.99057 -77.63676 40446 ft 427 kts 22°
2026-04-25 05:25 37.01726 -77.61995 39609 ft 430 kts 22°
2026-04-25 05:25 37.04454 -77.60282 38116 ft 445 kts 23°
2026-04-25 05:25 37.07196 -77.58560 37292 ft 444 kts 23°
2026-04-25 05:25 37.09938 -77.56831 36934 ft 434 kts 23°
2026-04-25 05:26 37.12612 -77.55138 36430 ft 429 kts 23°
2026-04-25 05:26 37.15259 -77.53462 35840 ft 426 kts 23°
2026-04-25 05:26 37.17896 -77.51791 35184 ft 423 kts 23°
2026-04-25 05:26 37.20496 -77.50145 34512 ft 422 kts 23°
2026-04-25 05:27 37.23088 -77.48504 33801 ft 422 kts 23°
2026-04-25 05:27 37.25697 -77.46851 33096 ft 422 kts 23°
2026-04-25 05:27 37.28316 -77.45193 32372 ft 423 kts 23°
2026-04-25 05:27 37.30959 -77.43517 31607 ft 424 kts 23°
2026-04-25 05:28 37.33592 -77.41847 30825 ft 426 kts 23°
2026-04-25 05:28 37.36208 -77.40185 30141 ft 425 kts 23°
2026-04-25 05:28 37.38838 -77.38512 29594 ft 421 kts 23°
2026-04-25 05:28 37.41435 -77.36857 29004 ft 418 kts 23°
2026-04-25 05:29 37.44026 -77.35205 28408 ft 415 kts 23°
2026-04-25 05:29 37.46615 -77.33622 27797 ft 412 kts 22°
2026-04-25 05:29 37.49241 -77.32257 27264 ft 405 kts 17°
2026-04-25 05:29 37.51886 -77.31267 26870 ft 396 kts 12°
2026-04-25 05:30 37.54552 -77.30503 26300 ft 393 kts
2026-04-25 05:30 37.57236 -77.29846 25739 ft 389 kts
2026-04-25 05:30 37.59891 -77.29237 25185 ft 386 kts
2026-04-25 05:30 37.62506 -77.28644 24629 ft 383 kts
2026-04-25 05:31 37.65111 -77.28046 24087 ft 380 kts
2026-04-25 05:31 37.67706 -77.27443 23534 ft 377 kts
2026-04-25 05:31 37.70279 -77.26837 23010 ft 374 kts
2026-04-25 05:31 37.72800 -77.26229 22867 ft 369 kts
2026-04-25 05:32 37.75352 -77.25584 22868 ft 376 kts
2026-04-25 05:32 37.77911 -77.24922 22852 ft 380 kts
2026-04-25 05:32 37.80511 -77.24243 22852 ft 378 kts
2026-04-25 05:32 37.83084 -77.23570 22848 ft 379 kts
2026-04-25 05:33 37.85668 -77.22895 22846 ft 378 kts
2026-04-25 05:33 37.88225 -77.22227 22845 ft 378 kts
2026-04-25 05:33 37.90813 -77.21553 22842 ft 377 kts
2026-04-25 05:33 37.93367 -77.20887 22840 ft 378 kts
2026-04-25 05:34 37.95957 -77.20212 22840 ft 377 kts
2026-04-25 05:34 37.98515 -77.19546 22842 ft 377 kts
2026-04-25 05:34 38.01107 -77.18873 22841 ft 377 kts
2026-04-25 05:34 38.03649 -77.18211 22843 ft 377 kts
2026-04-25 05:35 38.06243 -77.17533 22842 ft 377 kts
2026-04-25 05:35 38.08797 -77.16866 22719 ft 372 kts
2026-04-25 05:35 38.11290 -77.16211 22260 ft 369 kts
2026-04-25 05:35 38.13818 -77.15550 21711 ft 367 kts
2026-04-25 05:36 38.16311 -77.14897 21172 ft 365 kts
2026-04-25 05:36 38.18776 -77.14251 20637 ft 363 kts
2026-04-25 05:36 38.21235 -77.13606 20104 ft 361 kts
2026-04-25 05:36 38.23700 -77.12960 19566 ft 360 kts
2026-04-25 05:37 38.26121 -77.12326 19036 ft 358 kts
2026-04-25 05:37 38.28559 -77.11687 18500 ft 356 kts
2026-04-25 05:37 38.30976 -77.11051 17970 ft 354 kts 10°
2026-04-25 05:37 38.33371 -77.10408 17446 ft 353 kts 11°
2026-04-25 05:38 38.35727 -77.09571 16906 ft 352 kts 17°
2026-04-25 05:38 38.37958 -77.08296 16391 ft 352 kts 26°
2026-04-25 05:38 38.40034 -77.06679 15869 ft 352 kts 31°
2026-04-25 05:38 38.42030 -77.04918 15341 ft 350 kts 33°
2026-04-25 05:39 38.44017 -77.03095 14809 ft 349 kts 33°
2026-04-25 05:39 38.45968 -77.01303 14273 ft 347 kts 33°
2026-04-25 05:39 38.47931 -76.99518 13734 ft 345 kts 33°
2026-04-25 05:39 38.49860 -76.97778 13219 ft 343 kts 33°
2026-04-25 05:40 38.51827 -76.96016 12685 ft 341 kts 32°
2026-04-25 05:40 38.53736 -76.94310 12163 ft 339 kts 32°
2026-04-25 05:40 38.55598 -76.92500 11849 ft 332 kts 37°
2026-04-25 05:40 38.57308 -76.90574 11505 ft 326 kts 40°
2026-04-25 05:41 38.58947 -76.88596 11056 ft 324 kts 41°
2026-04-25 05:41 38.60572 -76.86601 10566 ft 323 kts 41°
2026-04-25 05:41 38.62171 -76.84643 10275 ft 315 kts 40°
2026-04-25 05:41 38.63734 -76.82743 10140 ft 302 kts 40°
2026-04-25 05:42 38.65227 -76.80939 10021 ft 289 kts 39°
2026-04-25 05:42 38.66649 -76.79228 9823 ft 281 kts 39°
2026-04-25 05:42 38.68074 -76.77520 9465 ft 281 kts 39°
2026-04-25 05:42 38.69506 -76.75805 9093 ft 280 kts 40°
2026-04-25 05:43 38.70827 -76.73983 8845 ft 278 kts 50°
2026-04-25 05:43 38.71862 -76.71890 8850 ft 283 kts 58°
2026-04-25 05:43 38.72791 -76.69684 8712 ft 282 kts 59°
2026-04-25 05:43 38.73698 -76.67481 8370 ft 281 kts 59°
2026-04-25 05:44 38.74630 -76.65263 7996 ft 280 kts 59°
2026-04-25 05:44 38.75551 -76.63115 7682 ft 277 kts 58°
2026-04-25 05:44 38.76486 -76.60958 7334 ft 276 kts 58°
2026-04-25 05:44 38.77528 -76.58892 6985 ft 273 kts 48°
2026-04-25 05:45 38.78953 -76.57441 6793 ft 260 kts 20°
2026-04-25 05:45 38.80659 -76.56855 6598 ft 249 kts
2026-04-25 05:45 38.82377 -76.56490 6290 ft 248 kts
2026-04-25 05:45 38.84055 -76.56130 5981 ft 246 kts
2026-04-25 05:46 38.85769 -76.56078 5886 ft 247 kts 351°
2026-04-25 05:46 38.87489 -76.56493 5857 ft 258 kts 345°
2026-04-25 05:46 38.89233 -76.57027 5877 ft 257 kts 344°
2026-04-25 05:46 38.90979 -76.57547 5754 ft 252 kts 345°
2026-04-25 05:47 38.92671 -76.58021 5465 ft 250 kts 346°
2026-04-25 05:47 38.94358 -76.58478 5139 ft 249 kts 346°
2026-04-25 05:47 38.96043 -76.59031 4898 ft 246 kts 338°
2026-04-25 05:47 38.97479 -76.60162 4854 ft 245 kts 311°
2026-04-25 05:48 38.98439 -76.61976 4647 ft 245 kts 296°
2026-04-25 05:48 38.99210 -76.63906 4397 ft 242 kts 295°
2026-04-25 05:48 38.99993 -76.65810 4147 ft 243 kts 296°
2026-04-25 05:48 39.00822 -76.67721 3913 ft 243 kts 298°
2026-04-25 05:49 39.01650 -76.69572 3886 ft 240 kts 298°
2026-04-25 05:49 39.02477 -76.71413 3882 ft 233 kts 298°
2026-04-25 05:49 39.03278 -76.73201 3884 ft 225 kts 298°
2026-04-25 05:49 39.04050 -76.74911 3889 ft 222 kts 298°
2026-04-25 05:50 39.04829 -76.76630 3888 ft 223 kts 298°
2026-04-25 05:50 39.05604 -76.78347 3885 ft 224 kts 298°
2026-04-25 05:50 39.06395 -76.80106 3885 ft 225 kts 298°
2026-04-25 05:50 39.07178 -76.81850 3883 ft 226 kts 297°
2026-04-25 05:51 39.07828 -76.83659 3883 ft 223 kts 288°
2026-04-25 05:51 39.08334 -76.85566 3883 ft 224 kts 285°
2026-04-25 05:51 39.08812 -76.87464 3883 ft 224 kts 286°
2026-04-25 05:51 39.09304 -76.89363 3881 ft 223 kts 287°
2026-04-25 05:52 39.09801 -76.91234 3881 ft 223 kts 287°
2026-04-25 05:52 39.10310 -76.93128 3880 ft 222 kts 287°
2026-04-25 05:52 39.10819 -76.95003 3880 ft 223 kts 287°
2026-04-25 05:52 39.11330 -76.96870 3877 ft 223 kts 287°
2026-04-25 05:53 39.11844 -76.98759 3874 ft 224 kts 287°
2026-04-25 05:53 39.12357 -77.00655 3872 ft 225 kts 287°
2026-04-25 05:53 39.12875 -77.02567 3871 ft 224 kts 288°
2026-04-25 05:53 39.13385 -77.04436 3867 ft 224 kts 288°
2026-04-25 05:54 39.13905 -77.06336 3865 ft 223 kts 287°
2026-04-25 05:54 39.14417 -77.08205 3865 ft 223 kts 288°
2026-04-25 05:54 39.15451 -77.11995 3861 ft 224 kts 288°
2026-04-25 05:55 39.15968 -77.13889 3861 ft 223 kts 287°
2026-04-25 05:55 39.16483 -77.15775 3861 ft 223 kts 288°
2026-04-25 05:55 39.16995 -77.17650 3862 ft 222 kts 288°
2026-04-25 05:55 39.17504 -77.19522 3858 ft 222 kts 287°
2026-04-25 05:56 39.18018 -77.21414 3670 ft 225 kts 287°
2026-04-25 05:56 39.18538 -77.23311 3421 ft 223 kts 287°
2026-04-25 05:56 39.19053 -77.25188 3172 ft 222 kts 288°
2026-04-25 05:56 39.19568 -77.27067 2927 ft 223 kts 288°
2026-04-25 05:57 39.20077 -77.28926 2855 ft 220 kts 288°
2026-04-25 05:57 39.20591 -77.30801 2857 ft 224 kts 288°
2026-04-25 05:57 39.21108 -77.32680 2859 ft 223 kts 288°
2026-04-25 05:57 39.21627 -77.34570 2862 ft 224 kts 288°
2026-04-25 05:58 39.22146 -77.36451 2858 ft 224 kts 288°
2026-04-25 05:58 39.22674 -77.38365 2857 ft 224 kts 288°
2026-04-25 05:58 39.23194 -77.40259 2853 ft 225 kts 288°
2026-04-25 05:58 39.23715 -77.42148 2849 ft 224 kts 288°
2026-04-25 05:59 39.24239 -77.44048 2855 ft 223 kts 288°
2026-04-25 05:59 39.24755 -77.45918 2853 ft 223 kts 288°
2026-04-25 05:59 39.25278 -77.47810 2857 ft 223 kts 288°
2026-04-25 05:59 39.25799 -77.49697 2851 ft 223 kts 288°
2026-04-25 06:00 39.26318 -77.51575 2857 ft 223 kts 288°
2026-04-25 06:00 39.26840 -77.53462 2863 ft 223 kts 288°
2026-04-25 06:00 39.27365 -77.55363 2864 ft 223 kts 288°
2026-04-25 06:00 39.27887 -77.57249 2861 ft 224 kts 288°
2026-04-25 06:01 39.28404 -77.59116 2857 ft 224 kts 288°
2026-04-25 06:01 39.28935 -77.61031 2855 ft 224 kts 288°
2026-04-25 06:01 39.29461 -77.62924 2856 ft 224 kts 289°
2026-04-25 06:01 39.29982 -77.64805 2856 ft 224 kts 288°
2026-04-25 06:02 39.30504 -77.66690 2855 ft 224 kts 288°
2026-04-25 06:02 39.31033 -77.68591 2856 ft 223 kts 288°
2026-04-25 06:02 39.31557 -77.70471 2854 ft 223 kts 287°
2026-04-25 06:02 39.32084 -77.72363 2853 ft 223 kts 288°
2026-04-25 06:03 39.32607 -77.74242 2852 ft 223 kts 287°
2026-04-25 06:03 39.33123 -77.76101 2850 ft 221 kts 288°
2026-04-25 06:03 39.33647 -77.77982 2851 ft 222 kts 288°
2026-04-25 06:03 39.34169 -77.79857 2852 ft 222 kts 288°
2026-04-25 06:04 39.34692 -77.81733 2854 ft 222 kts 287°
2026-04-25 06:04 39.35212 -77.83599 2853 ft 222 kts 288°
2026-04-25 06:04 39.35741 -77.85490 2851 ft 221 kts 287°
2026-04-25 06:04 39.36257 -77.87337 2850 ft 221 kts 287°
2026-04-25 06:05 39.36780 -77.89208 2850 ft 221 kts 288°
2026-04-25 06:05 39.37306 -77.91082 2849 ft 220 kts 288°
2026-04-25 06:05 39.37826 -77.92945 2849 ft 221 kts 287°
2026-04-25 06:05 39.38347 -77.94807 2847 ft 219 kts 287°
2026-04-25 06:06 39.38863 -77.96654 2847 ft 221 kts 288°
2026-04-25 06:06 39.39385 -77.98513 2847 ft 220 kts 288°
2026-04-25 06:06 39.39911 -78.00376 2847 ft 221 kts 288°
2026-04-25 06:06 39.40435 -78.02238 2847 ft 220 kts 288°
2026-04-25 06:07 39.40958 -78.04098 2845 ft 220 kts 288°
2026-04-25 06:07 39.41479 -78.05956 2840 ft 221 kts 288°
2026-04-25 06:07 39.42002 -78.07816 2837 ft 222 kts 288°
2026-04-25 06:07 39.42532 -78.09703 2833 ft 221 kts 289°
2026-04-25 06:08 39.43061 -78.11577 2834 ft 221 kts 288°
2026-04-25 06:08 39.43583 -78.13429 2834 ft 222 kts 288°
2026-04-25 06:08 39.44114 -78.15314 2837 ft 222 kts 288°
2026-04-25 06:08 39.44641 -78.17178 2838 ft 221 kts 288°
2026-04-25 06:09 39.45169 -78.19052 2840 ft 221 kts 288°
2026-04-25 06:09 39.45695 -78.20908 2837 ft 222 kts 289°
2026-04-25 06:09 39.46227 -78.22786 2838 ft 223 kts 288°
2026-04-25 06:09 39.46759 -78.24665 2839 ft 222 kts 289°
2026-04-25 06:10 39.47284 -78.26524 2840 ft 221 kts 289°
2026-04-25 06:10 39.47813 -78.28398 2842 ft 222 kts 289°
2026-04-25 06:10 39.48344 -78.30275 2843 ft 222 kts 289°
2026-04-25 06:10 39.48879 -78.32162 2845 ft 221 kts 289°
2026-04-25 06:11 39.49402 -78.34013 2845 ft 220 kts 289°
2026-04-25 06:11 39.49930 -78.35878 2845 ft 221 kts 289°
2026-04-25 06:11 39.50457 -78.37734 2845 ft 221 kts 289°
2026-04-25 06:11 39.50995 -78.39625 2847 ft 221 kts 289°
2026-04-25 06:12 39.51523 -78.41479 2848 ft 221 kts 289°
2026-04-25 06:12 39.52055 -78.43353 2847 ft 221 kts 289°
2026-04-25 06:12 39.52582 -78.45203 2848 ft 221 kts 289°
2026-04-25 06:12 39.53118 -78.47083 2847 ft 220 kts 289°
2026-04-25 06:13 39.53643 -78.48927 2847 ft 219 kts 289°
2026-04-25 06:13 39.54171 -78.50786 2848 ft 219 kts 289°
2026-04-25 06:13 39.54701 -78.52648 2849 ft 220 kts 289°
2026-04-25 06:14 39.55756 -78.56337 2855 ft 218 kts 289°
2026-04-25 06:14 39.56283 -78.58181 2856 ft 218 kts 289°
2026-04-25 06:14 39.56809 -78.60025 2858 ft 219 kts 289°
2026-04-25 06:14 39.57333 -78.61865 2857 ft 219 kts 289°
2026-04-25 06:15 39.57864 -78.63728 2859 ft 218 kts 289°
2026-04-25 06:15 39.58390 -78.65562 2859 ft 217 kts 289°
2026-04-25 06:15 39.58912 -78.67380 2856 ft 217 kts 289°
2026-04-25 06:15 39.59444 -78.69236 2855 ft 218 kts 288°
2026-04-25 06:16 39.59966 -78.71059 2853 ft 218 kts 288°
2026-04-25 06:16 39.60496 -78.72908 2855 ft 217 kts 289°
2026-04-25 06:16 39.61024 -78.74753 2857 ft 216 kts 289°
2026-04-25 06:16 39.61544 -78.76564 2859 ft 216 kts 289°
2026-04-25 06:17 39.62067 -78.78372 2861 ft 215 kts 289°
2026-04-25 06:17 39.62591 -78.80190 2861 ft 216 kts 289°
2026-04-25 06:17 39.63116 -78.82013 2863 ft 216 kts 289°
2026-04-25 06:17 39.63640 -78.83833 2861 ft 216 kts 290°
2026-04-25 06:18 39.64167 -78.85674 2864 ft 217 kts 289°
2026-04-25 06:18 39.64694 -78.87513 2859 ft 216 kts 289°
2026-04-25 06:18 39.65219 -78.89326 2861 ft 216 kts 290°
2026-04-25 06:18 39.65751 -78.91148 2860 ft 216 kts 290°
2026-04-25 06:19 39.66286 -78.92993 2861 ft 217 kts 290°
2026-04-25 06:19 39.66809 -78.94806 2862 ft 216 kts 289°
2026-04-25 06:19 39.67340 -78.96654 2857 ft 217 kts 290°
2026-04-25 06:19 39.67870 -78.98487 2866 ft 218 kts 290°
2026-04-25 06:20 39.68408 -79.00337 2871 ft 218 kts 290°
2026-04-25 06:20 39.68941 -79.02169 2874 ft 219 kts 290°
2026-04-25 06:20 39.69474 -79.04012 2874 ft 220 kts 290°
2026-04-25 06:20 39.70016 -79.05885 2873 ft 220 kts 290°
2026-04-25 06:21 39.70274 -79.06773 2868 ft 0 kts 290°
2026-04-25 06:22 39.70273 -79.06773 2867 ft 0 kts 290°
2026-04-25 06:24 39.70272 -79.06773 2867 ft 0 kts 290°
2026-04-25 06:24 39.70272 -79.06772 2867 ft 0 kts 290°
2026-04-25 06:26 39.70272 -79.06771 2866 ft 0 kts 290°
2026-04-25 06:26 39.70271 -79.06771 2866 ft 0 kts 290°
2026-04-25 06:27 39.70271 -79.06770 2866 ft 0 kts 290°
2026-04-25 06:29 39.70270 -79.06770 2865 ft 0 kts 290°
2026-04-25 06:30 39.70270 -79.06769 2864 ft 0 kts 290°
2026-04-25 06:31 39.70269 -79.06769 2864 ft 0 kts 289°
2026-04-25 06:32 39.70269 -79.06768 2864 ft 0 kts 289°
2026-04-25 06:33 39.70268 -79.06768 2863 ft 0 kts 289°
2026-04-25 06:34 39.70268 -79.06767 2863 ft 0 kts 289°
2026-04-25 06:35 39.70267 -79.06767 2863 ft 0 kts 289°
2026-04-25 06:37 39.70267 -79.06766 2862 ft 0 kts 289°
2026-04-25 06:38 39.70266 -79.06766 2862 ft 0 kts 289°
2026-04-25 06:39 39.70266 -79.06765 2861 ft 0 kts 289°
2026-04-25 06:40 39.70266 -79.06764 2861 ft 0 kts 289°
2026-04-25 06:41 39.70265 -79.06764 2861 ft 0 kts 289°
2026-04-25 06:42 39.70265 -79.06763 2860 ft 0 kts 289°
2026-04-25 06:42 39.70264 -79.06763 2860 ft 0 kts 289°
2026-04-25 06:45 39.70263 -79.06763 2859 ft 0 kts 289°
2026-04-25 06:45 39.70263 -79.06762 2859 ft 0 kts 289°
2026-04-25 06:47 39.70262 -79.06762 2859 ft 0 kts 288°
2026-04-25 06:47 39.70262 -79.06761 2859 ft 0 kts 288°
2026-04-25 06:48 39.70262 -79.06760 2858 ft 0 kts 288°
2026-04-25 06:49 39.70261 -79.06760 2858 ft 0 kts 288°
2026-04-25 06:52 39.70260 -79.06759 2857 ft 0 kts 288°
2026-04-25 06:53 39.70260 -79.06758 2856 ft 0 kts 288°
2026-04-25 06:55 39.70259 -79.06758 2856 ft 0 kts 288°
2026-04-25 06:55 39.70259 -79.06757 2856 ft 0 kts 288°
2026-04-25 06:56 39.70258 -79.06757 2855 ft 0 kts 288°
2026-04-25 06:59 39.70258 -79.06756 2855 ft 0 kts 288°
2026-04-25 06:59 39.70257 -79.06756 2855 ft 0 kts 288°
2026-04-25 07:00 39.70257 -79.06755 2854 ft 0 kts 287°
2026-04-25 07:01 39.70256 -79.06755 2854 ft 0 kts 287°
2026-04-25 07:02 39.70256 -79.06754 2853 ft 0 kts 287°
2026-04-25 07:03 39.70255 -79.06754 2853 ft 0 kts 287°
2026-04-25 07:05 39.70255 -79.06753 2852 ft 0 kts 287°
2026-04-25 07:06 39.70254 -79.06753 2852 ft 0 kts 287°
2026-04-25 07:07 39.70254 -79.06752 2851 ft 0 kts 287°
2026-04-25 07:08 39.70253 -79.06752 2851 ft 0 kts 287°
2026-04-25 07:09 39.70253 -79.06751 2851 ft 0 kts 287°
2026-04-25 07:10 39.70252 -79.06751 2850 ft 0 kts 287°
2026-04-25 07:11 39.70252 -79.06750 2850 ft 0 kts 287°
2026-04-25 07:12 39.70251 -79.06750 2850 ft 0 kts 286°
2026-04-25 07:14 39.70251 -79.06749 2849 ft 0 kts 286°
2026-04-25 07:14 39.70250 -79.06749 2849 ft 0 kts 286°
2026-04-25 07:16 39.70250 -79.06748 2848 ft 0 kts 286°
2026-04-25 07:17 39.70249 -79.06748 2848 ft 0 kts 286°
2026-04-25 07:17 39.70249 -79.06747 2848 ft 0 kts 286°
2026-04-25 07:19 39.70248 -79.06747 2847 ft 0 kts 286°
2026-04-25 07:21 39.70247 -79.06746 2846 ft 0 kts 285°
2026-04-25 07:23 39.70246 -79.06745 2846 ft 0 kts 285°
2026-04-25 07:25 39.70246 -79.06744 2845 ft 0 kts 285°
2026-04-25 07:25 39.70245 -79.06744 2845 ft 0 kts 285°
2026-04-25 07:28 39.70244 -79.06744 2844 ft 0 kts 285°
2026-04-25 07:28 39.70244 -79.06743 2844 ft 0 kts 285°
2026-04-25 07:29 39.70244 -79.06742 2844 ft 0 kts 285°
2026-04-25 07:30 39.70244 -79.06741 2843 ft 0 kts 285°
2026-04-25 07:30 39.70243 -79.06741 2843 ft 0 kts 285°
2026-04-25 07:31 39.70242 -79.06740 2842 ft 0 kts 285°
2026-04-25 07:32 39.70242 -79.06739 2842 ft 0 kts 285°
2026-04-25 07:33 39.70242 -79.06738 2841 ft 0 kts 285°
2026-04-25 07:33 39.70241 -79.06738 2841 ft 0 kts 285°
2026-04-25 07:34 39.70241 -79.06737 2841 ft 0 kts 285°
2026-04-25 07:35 39.70240 -79.06737 2840 ft 0 kts 285°
2026-04-25 07:35 39.70240 -79.06736 2840 ft 0 kts 285°
2026-04-25 07:36 39.70240 -79.06735 2839 ft 0 kts 285°
2026-04-25 07:37 39.70239 -79.06735 2839 ft 0 kts 285°
2026-04-25 07:37 39.70239 -79.06734 2838 ft 0 kts 285°
2026-04-25 07:38 39.70238 -79.06734 2838 ft 0 kts 285°
2026-04-25 07:38 39.70238 -79.06733 2838 ft 0 kts 285°
2026-04-25 07:39 39.70238 -79.06732 2837 ft 0 kts 285°
2026-04-25 07:40 39.70238 -79.06731 2837 ft 0 kts 285°
2026-04-25 07:40 39.70237 -79.06731 2837 ft 0 kts 285°
2026-04-25 07:41 39.70237 -79.06730 2836 ft 0 kts 285°
2026-04-25 07:42 39.70237 -79.06729 2836 ft 0 kts 285°
2026-04-25 07:42 39.70236 -79.06729 2835 ft 0 kts 285°
2026-04-25 07:42 39.70236 -79.06728 2835 ft 0 kts 285°
2026-04-25 07:43 39.70235 -79.06728 2835 ft 0 kts 285°
2026-04-25 07:44 39.70235 -79.06727 2834 ft 0 kts 285°
2026-04-25 07:45 39.70235 -79.06726 2834 ft 0 kts 285°
2026-04-25 07:45 39.70234 -79.06726 2833 ft 0 kts 285°
2026-04-25 07:45 39.70234 -79.06725 2833 ft 0 kts 285°
2026-04-25 07:46 39.70234 -79.06724 2833 ft 0 kts 285°
2026-04-25 07:46 39.70233 -79.06724 2832 ft 0 kts 285°
2026-04-25 07:48 39.70233 -79.06723 2832 ft 0 kts 285°
2026-04-25 07:48 39.70232 -79.06722 2831 ft 0 kts 285°
2026-04-25 07:50 39.70232 -79.06721 2830 ft 0 kts 285°
2026-04-25 07:50 39.70231 -79.06721 2830 ft 0 kts 285°
2026-04-25 07:51 39.70231 -79.06720 2830 ft 0 kts 285°
2026-04-25 07:51 39.70231 -79.06719 2829 ft 0 kts 285°
2026-04-25 07:52 39.70231 -79.06718 2829 ft 0 kts 285°
2026-04-25 07:52 39.70230 -79.06718 2828 ft 0 kts 285°
2026-04-25 07:53 39.70230 -79.06717 2828 ft 0 kts 285°
2026-04-25 07:54 39.70229 -79.06717 2828 ft 0 kts 285°
2026-04-25 07:54 39.70229 -79.06716 2827 ft 0 kts 285°
2026-04-25 07:55 39.70229 -79.06715 2827 ft 0 kts 285°
2026-04-25 07:56 39.70228 -79.06715 2826 ft 0 kts 285°
2026-04-25 07:56 39.70228 -79.06714 2826 ft 0 kts 285°
2026-04-25 07:57 39.70227 -79.06714 2825 ft 0 kts 285°
2026-04-25 07:57 39.70227 -79.06713 2825 ft 0 kts 285°
2026-04-25 07:58 39.70227 -79.06712 2825 ft 0 kts 285°
2026-04-25 07:59 39.70226 -79.06712 2824 ft 0 kts 285°
2026-04-25 07:59 39.70226 -79.06711 2824 ft 0 kts 285°
2026-04-25 08:00 39.70226 -79.06710 2823 ft 0 kts 285°
2026-04-25 08:01 39.70225 -79.06709 2823 ft 0 kts 285°
2026-04-25 08:02 39.70224 -79.06709 2822 ft 0 kts 285°
2026-04-25 08:02 39.70224 -79.06708 2822 ft 0 kts 285°
2026-04-25 08:03 39.70224 -79.06707 2821 ft 0 kts 285°
2026-04-25 08:04 39.70224 -79.06706 2821 ft 0 kts 285°
2026-04-25 08:04 39.70223 -79.06706 2821 ft 0 kts 285°
2026-04-25 08:04 39.70223 -79.06705 2820 ft 0 kts 285°
2026-04-25 08:05 39.70222 -79.06705 2820 ft 0 kts 285°
2026-04-25 08:06 39.70222 -79.06704 2819 ft 0 kts 285°
2026-04-25 08:07 39.70222 -79.06703 2819 ft 0 kts 285°
2026-04-25 08:07 39.70221 -79.06702 2818 ft 0 kts 285°
2026-04-25 08:09 39.70221 -79.06701 2817 ft 0 kts 285°
2026-04-25 08:09 39.70220 -79.06701 2817 ft 0 kts 285°
2026-04-25 08:10 39.70220 -79.06700 2817 ft 0 kts 285°
2026-04-25 08:10 39.70220 -79.06699 2816 ft 0 kts 285°
2026-04-25 08:11 39.70219 -79.06699 2816 ft 0 kts 285°
2026-04-25 08:12 39.70219 -79.06698 2816 ft 0 kts 285°
2026-04-25 08:12 39.70219 -79.06697 2815 ft 0 kts 285°
2026-04-25 08:13 39.70218 -79.06697 2815 ft 0 kts 285°
2026-04-25 08:13 39.70218 -79.06696 2815 ft 0 kts 285°
2026-04-25 08:14 39.70217 -79.06696 2814 ft 0 kts 285°
2026-04-25 08:15 39.70217 -79.06695 2814 ft 0 kts 285°
2026-04-25 08:15 39.70217 -79.06694 2813 ft 0 kts 285°
2026-04-25 08:16 39.70216 -79.06694 2813 ft 0 kts 285°
2026-04-25 08:16 39.70216 -79.06693 2813 ft 0 kts 285°
2026-04-25 08:17 39.70216 -79.06692 2812 ft 0 kts 285°
2026-04-25 08:18 39.70215 -79.06692 2812 ft 0 kts 285°
2026-04-25 08:18 39.70215 -79.06691 2811 ft 0 kts 285°
2026-04-25 08:19 39.70215 -79.06690 2811 ft 0 kts 285°
2026-04-25 08:20 39.70214 -79.06690 2810 ft 0 kts 285°
2026-04-25 08:21 39.70214 -79.06689 2810 ft 0 kts 285°
2026-04-25 08:21 39.70213 -79.06689 2810 ft 0 kts 285°
2026-04-25 08:21 39.70213 -79.06688 2809 ft 0 kts 285°
2026-04-25 08:22 39.70213 -79.06687 2809 ft 0 kts 285°
2026-04-25 08:23 39.70213 -79.06686 2809 ft 0 kts 285°
2026-04-25 08:23 39.70212 -79.06686 2808 ft 0 kts 285°
2026-04-25 08:24 39.70212 -79.06685 2808 ft 0 kts 285°
2026-04-25 08:24 39.70211 -79.06685 2807 ft 0 kts 285°
2026-04-25 08:25 39.70211 -79.06684 2807 ft 0 kts 285°
2026-04-25 08:26 39.70211 -79.06683 2807 ft 0 kts 285°
2026-04-25 08:26 39.70210 -79.06683 2806 ft 0 kts 285°
2026-04-25 08:27 39.70210 -79.06682 2806 ft 0 kts 285°
2026-04-25 08:28 39.70209 -79.06682 2805 ft 0 kts 285°
2026-04-25 08:28 39.70209 -79.06681 2805 ft 0 kts 285°
2026-04-25 08:29 39.70209 -79.06680 2805 ft 0 kts 285°
2026-04-25 08:29 39.70209 -79.06679 2804 ft 0 kts 285°
2026-04-25 08:30 39.70208 -79.06679 2804 ft 0 kts 285°
2026-04-25 08:31 39.70208 -79.06678 2803 ft 0 kts 285°
2026-04-25 08:31 39.70208 -79.06677 2803 ft 0 kts 285°
2026-04-25 08:32 39.70207 -79.06677 2803 ft 0 kts 285°
2026-04-25 08:33 39.70206 -79.06676 2802 ft 0 kts 285°
2026-04-25 08:34 39.70206 -79.06675 2801 ft 0 kts 285°
2026-04-25 08:34 39.70206 -79.06674 2801 ft 0 kts 285°
2026-04-25 08:35 39.70205 -79.06674 2800 ft 0 kts 285°
2026-04-25 08:35 39.70205 -79.06673 2800 ft 0 kts 285°
2026-04-25 08:36 39.70204 -79.06673 2800 ft 0 kts 285°
2026-04-25 08:37 39.70204 -79.06672 2799 ft 0 kts 285°
2026-04-25 08:37 39.70204 -79.06671 2799 ft 0 kts 285°
2026-04-25 08:38 39.70203 -79.06670 2798 ft 0 kts 285°
2026-04-25 08:39 39.70203 -79.06669 2797 ft 0 kts 285°
2026-04-25 08:40 39.70202 -79.06668 2797 ft 0 kts 285°
2026-04-25 08:41 39.70202 -79.06667 2796 ft 0 kts 285°
2026-04-25 08:42 39.70201 -79.06667 2796 ft 0 kts 285°
2026-04-25 08:42 39.70201 -79.06666 2795 ft 0 kts 285°
2026-04-25 08:43 39.70201 -79.06665 2795 ft 0 kts 285°
2026-04-25 08:43 39.70200 -79.06665 2795 ft 0 kts 285°
2026-04-25 08:44 39.70200 -79.06664 2794 ft 0 kts 285°
2026-04-25 08:45 39.70199 -79.06664 2794 ft 0 kts 285°
2026-04-25 08:45 39.70199 -79.06663 2793 ft 0 kts 285°
2026-04-25 08:46 39.70199 -79.06662 2793 ft 0 kts 285°
2026-04-25 08:47 39.70198 -79.06661 2793 ft 0 kts 285°
2026-04-25 08:47 39.70198 -79.06660 2792 ft 0 kts 285°
2026-04-25 08:48 39.70197 -79.06660 2791 ft 0 kts 285°
2026-04-25 08:49 39.70197 -79.06659 2791 ft 0 kts 285°
2026-04-25 08:50 39.70197 -79.06658 2791 ft 0 kts 285°
2026-04-25 08:50 39.70196 -79.06657 2790 ft 0 kts 285°
2026-04-25 08:52 39.70195 -79.06657 2789 ft 0 kts 285°
2026-04-25 08:52 39.70195 -79.06656 2789 ft 0 kts 285°
2026-04-25 08:53 39.70195 -79.06655 2789 ft 0 kts 285°
2026-04-25 08:53 39.70195 -79.06654 2788 ft 0 kts 285°
2026-04-25 08:54 39.70194 -79.06654 2788 ft 0 kts 285°
2026-04-25 08:55 39.70194 -79.06653 2787 ft 0 kts 285°
2026-04-25 08:55 39.70193 -79.06653 2787 ft 0 kts 285°
2026-04-25 08:55 39.70193 -79.06652 2787 ft 0 kts 285°
2026-04-25 08:56 39.70193 -79.06651 2786 ft 0 kts 285°
2026-04-25 08:57 39.70192 -79.06651 2786 ft 0 kts 285°
2026-04-25 08:58 39.70192 -79.06650 2785 ft 0 kts 285°
2026-04-25 08:58 39.70192 -79.06649 2785 ft 0 kts 285°
2026-04-25 08:59 39.70191 -79.06648 2785 ft 0 kts 285°
2026-04-25 09:00 39.70191 -79.06647 2784 ft 0 kts 284°
2026-04-25 09:00 39.70190 -79.06647 2784 ft 0 kts 284°
2026-04-25 09:01 39.70190 -79.06646 2783 ft 0 kts 283°
2026-04-25 09:01 39.70189 -79.06646 2783 ft 0 kts 283°
2026-04-25 09:02 39.70189 -79.06645 2782 ft 0 kts 283°
2026-04-25 09:02 39.70189 -79.06644 2782 ft 0 kts 282°
2026-04-25 09:02 39.70188 -79.06644 2782 ft 0 kts 282°
2026-04-25 09:03 39.70188 -79.06643 2781 ft 0 kts 281°
2026-04-25 09:04 39.70187 -79.06643 2780 ft 0 kts 281°
2026-04-25 09:04 39.70187 -79.06642 2780 ft 0 kts 281°
2026-04-25 09:05 39.70187 -79.06641 2780 ft 0 kts 280°
2026-04-25 09:05 39.70186 -79.06641 2779 ft 0 kts 279°
2026-04-25 09:06 39.70186 -79.06640 2779 ft 0 kts 279°
2026-04-25 09:07 39.70185 -79.06639 2778 ft 0 kts 278°
2026-04-25 09:07 39.70185 -79.06638 2778 ft 0 kts 278°
2026-04-25 09:08 39.70184 -79.06638 2777 ft 0 kts 277°
2026-04-25 09:08 39.70184 -79.06637 2777 ft 0 kts 277°
2026-04-25 09:09 39.70183 -79.06636 2776 ft 0 kts 276°
2026-04-25 09:10 39.70183 -79.06635 2776 ft 0 kts 275°
2026-04-25 09:10 39.70182 -79.06635 2775 ft 0 kts 275°
2026-04-25 09:10 39.70182 -79.06634 2775 ft 0 kts 275°
2026-04-25 09:12 39.70181 -79.06633 2774 ft 0 kts 273°
2026-04-25 09:12 39.70181 -79.06632 2774 ft 0 kts 272°
2026-04-25 09:13 39.70180 -79.06632 2773 ft 0 kts 271°
2026-04-25 09:14 39.70180 -79.06631 2772 ft 0 kts 271°
2026-04-25 09:14 39.70179 -79.06631 2772 ft 0 kts 270°
2026-04-25 09:14 39.70179 -79.06630 2772 ft 0 kts 270°
2026-04-25 09:15 39.70179 -79.06629 2772 ft 0 kts 270°
2026-04-25 09:15 39.70178 -79.06628 2771 ft 0 kts 269°
2026-04-25 09:16 39.70177 -79.06628 2770 ft 0 kts 268°
2026-04-25 09:17 39.70177 -79.06627 2770 ft 0 kts 267°
2026-04-25 09:17 39.70177 -79.06626 2770 ft 0 kts 267°
2026-04-25 09:18 39.70176 -79.06626 2769 ft 0 kts 266°
2026-04-25 09:18 39.70176 -79.06625 2769 ft 0 kts 265°
2026-04-25 09:19 39.70175 -79.06624 2768 ft 0 kts 264°
2026-04-25 09:20 39.70174 -79.06623 2767 ft 0 kts 262°
2026-04-25 09:20 39.70174 -79.06622 2767 ft 0 kts 262°
2026-04-25 09:21 39.70173 -79.06622 2766 ft 0 kts 260°
2026-04-25 09:21 39.70173 -79.06621 2766 ft 0 kts 259°
2026-04-25 09:22 39.70173 -79.06620 2765 ft 0 kts 258°
2026-04-25 09:22 39.70172 -79.06619 2765 ft 0 kts 258°
2026-04-25 09:23 39.70171 -79.06619 2764 ft 0 kts 256°
2026-04-25 09:24 39.70171 -79.06618 2764 ft 0 kts 255°
2026-04-25 09:24 39.70171 -79.06617 2763 ft 0 kts 255°
2026-04-25 09:24 39.70170 -79.06617 2763 ft 0 kts 254°
2026-04-25 09:25 39.70170 -79.06616 2763 ft 0 kts 253°
2026-04-25 09:25 39.70169 -79.06615 2762 ft 0 kts 252°
2026-04-25 09:26 39.70169 -79.06614 2761 ft 0 kts 250°
2026-04-25 09:27 39.70168 -79.06614 2761 ft 0 kts 250°
2026-04-25 09:27 39.70168 -79.06613 2760 ft 0 kts 249°
2026-04-25 09:28 39.70168 -79.06612 2760 ft 0 kts 248°
2026-04-25 09:28 39.70167 -79.06612 2760 ft 0 kts 247°
2026-04-25 09:29 39.70166 -79.06611 2759 ft 0 kts 246°
2026-04-25 09:29 39.70166 -79.06610 2759 ft 0 kts 245°
2026-04-25 09:30 39.70166 -79.06609 2758 ft 0 kts 244°
2026-04-25 09:30 39.70165 -79.06609 2758 ft 0 kts 243°
2026-04-25 09:31 39.70164 -79.06608 2757 ft 0 kts 242°
2026-04-25 09:31 39.70164 -79.06607 2757 ft 0 kts 240°
2026-04-25 09:32 39.70163 -79.06606 2756 ft 0 kts 239°
2026-04-25 09:33 39.70163 -79.06605 2755 ft 0 kts 237°
2026-04-25 09:33 39.70162 -79.06605 2755 ft 0 kts 236°
2026-04-25 09:33 39.70162 -79.06604 2754 ft 0 kts 236°
2026-04-25 09:34 39.70162 -79.06603 2754 ft 0 kts 234°
2026-04-25 09:34 39.70161 -79.06603 2754 ft 0 kts 234°
2026-04-25 09:34 39.70161 -79.06602 2754 ft 0 kts 233°
2026-04-25 09:35 39.70160 -79.06601 2753 ft 0 kts 232°
2026-04-25 09:36 39.70160 -79.06600 2752 ft 0 kts 230°
2026-04-25 09:36 39.70159 -79.06600 2752 ft 0 kts 230°
2026-04-25 09:36 39.70159 -79.06599 2752 ft 0 kts 229°
2026-04-25 09:37 39.70158 -79.06598 2751 ft 0 kts 227°
2026-04-25 09:38 39.70158 -79.06597 2750 ft 0 kts 226°
2026-04-25 09:38 39.70158 -79.06596 2750 ft 0 kts 225°
2026-04-25 09:39 39.70157 -79.06596 2749 ft 0 kts 224°
2026-04-25 09:40 39.70157 -79.06595 2748 ft 0 kts 222°
2026-04-25 09:40 39.70157 -79.06594 2748 ft 0 kts 222°
2026-04-25 09:40 39.70156 -79.06594 2748 ft 0 kts 221°
2026-04-25 09:40 39.70156 -79.06593 2748 ft 0 kts 220°
2026-04-25 09:41 39.70155 -79.06593 2747 ft 0 kts 219°
2026-04-25 09:41 39.70155 -79.06592 2747 ft 0 kts 218°
2026-04-25 09:42 39.70155 -79.06591 2746 ft 0 kts 217°
2026-04-25 09:42 39.70154 -79.06591 2746 ft 0 kts 216°
2026-04-25 09:42 39.70154 -79.06590 2745 ft 0 kts 216°
2026-04-25 09:43 39.70154 -79.06589 2745 ft 0 kts 215°
2026-04-25 09:43 39.70153 -79.06589 2745 ft 0 kts 214°
2026-04-25 09:44 39.70153 -79.06588 2744 ft 0 kts 212°
2026-04-25 09:44 39.70153 -79.06587 2744 ft 0 kts 211°
2026-04-25 09:44 39.70152 -79.06587 2743 ft 0 kts 210°
2026-04-25 09:45 39.70152 -79.06586 2743 ft 0 kts 209°
2026-04-25 09:45 39.70152 -79.06585 2742 ft 0 kts 207°
2026-04-25 09:46 39.70151 -79.06585 2742 ft 0 kts 207°
2026-04-25 09:46 39.70151 -79.06584 2742 ft 0 kts 206°
2026-04-25 09:46 39.70151 -79.06583 2741 ft 0 kts 205°
2026-04-25 09:46 39.70150 -79.06583 2741 ft 0 kts 205°
2026-04-25 09:47 39.70150 -79.06582 2740 ft 0 kts 203°
2026-04-25 09:48 39.70150 -79.06581 2740 ft 0 kts 202°
2026-04-25 09:48 39.70149 -79.06581 2740 ft 0 kts 201°
2026-04-25 09:48 39.70149 -79.06580 2739 ft 0 kts 201°
2026-04-25 09:49 39.70148 -79.06579 2739 ft 0 kts 199°
2026-04-25 09:49 39.70148 -79.06578 2738 ft 0 kts 198°
2026-04-25 09:50 39.70148 -79.06577 2738 ft 0 kts 197°
2026-04-25 09:50 39.70147 -79.06576 2737 ft 0 kts 196°
2026-04-25 09:51 39.70147 -79.06575 2736 ft 0 kts 194°
2026-04-25 09:52 39.70146 -79.06574 2736 ft 0 kts 192°
2026-04-25 09:52 39.70146 -79.06573 2735 ft 0 kts 191°